EW0284 Weather Reports


Display with metric or nautical units.
time (UTC)temp
F
wind
direction
speed
MPH
gust
MPH
rain 1hr
in
rain 24hr
in
rain mn
in
humidity
%
barometer
mb
20260504023008 50 182 0.0 0.0 0.00 0.00 0.00 72 1013.5
20260504021513 51 182 0.0 0.0 0.00 0.00 0.00 70 1013.6
20260504020006 52 182 0.0 0.0 0.00 0.00 0.00 67 1013.8
20260504014502 54 182 0.0 0.0 0.00 0.00 0.00 64 1013.7
20260504013119 55 182 0.0 0.0 0.00 0.00 0.00 61 1013.7
20260504011520 57 182 0.0 0.0 0.00 0.00 0.00 59 1013.8
20260504010020 58 182 0.0 0.0 0.00 0.00 0.00 55 1013.6
20260504004512 59 182 0.0 0.0 0.00 0.00 0.00 52 1013.3
20260504003007 60 182 0.0 0.0 0.00 0.00 0.00 50 1013.2
20260504001622 61 246 0.0 0.0 0.00 0.00 0.00 49 1013.1
20260504000101 61 153 0.0 6.0 0.00 0.00 0.00 47 1013.0
20260503234553 62 152 0.0 3.0 0.00 0.00 0.00 47 1012.9
20260503233038 62 186 0.0 4.0 0.00 0.00 0.00 46 1013.0
20260503231547 62 169 0.0 9.0 0.00 0.00 0.00 46 1012.9
20260503230032 62 154 0.0 8.0 0.00 0.00 0.00 46 1013.1
20260503224518 63 225 1.0 9.0 0.00 0.00 0.00 45 1013.6
20260503223014 62 246 0.0 6.0 0.00 0.00 0.00 44 1013.7
20260503221520 62 207 0.0 6.0 0.00 0.00 0.00 43 1014.2
20260503220014 63 134 0.0 5.0 0.00 0.00 0.00 42 1014.3
20260503214519 63 166 1.0 7.0 0.00 0.00 0.00 42 1014.3
20260503213058 63 240 3.0 12.0 0.00 0.00 0.00 41 1014.9
20260503211557 63 275 2.0 8.0 0.00 0.00 0.00 41 1015.1
20260503210046 63 219 0.0 8.0 0.00 0.00 0.00 40 1014.9
20260503204554 62 128 1.0 6.0 0.00 0.00 0.00 40 1015.0
20260503203035 62 167 1.0 4.0 0.00 0.00 0.00 39 1015.6
20260503201511 62 276 5.0 14.0 0.00 0.00 0.00 38 1015.7
20260503200003 62 208 1.0 8.0 0.00 0.00 0.00 40 1016.0
20260503194524 62 248 2.0 10.0 0.00 0.00 0.00 39 1016.3
20260503193055 61 224 3.0 7.0 0.00 0.00 0.00 39 1016.9
20260503191553 61 210 2.0 10.0 0.00 0.00 0.00 40 1017.2
20260503190039 61 235 2.0 9.0 0.00 0.00 0.00 38 1017.5
20260503184523 61 145 2.0 12.0 0.00 0.00 0.00 40 1017.7
20260503183012 60 240 1.0 6.0 0.00 0.00 0.00 38 1017.9
20260503181559 59 175 1.0 7.0 0.00 0.00 0.00 39 1018.3
20260503180053 59 221 2.0 12.0 0.00 0.00 0.00 39 1018.6
20260503174547 59 135 1.0 8.0 0.00 0.00 0.00 40 1018.6
20260503173105 59 271 1.0 8.0 0.00 0.00 0.00 39 1018.9
20260503171504 59 217 3.0 7.0 0.00 0.00 0.00 39 1019.0
20260503081524 32 321 0.0 0.0 0.00 0.00 0.00 91 1019.5
20260503071601 33 321 0.0 0.0 0.00 0.00 0.00 90 1019.3
20260503054505 35 321 0.0 0.0 0.00 0.00 0.00 88 1019.7
20260503053010 36 321 0.0 0.0 0.00 0.00 0.00 88 1019.6
20260503051514 36 321 0.0 0.0 0.00 0.00 0.00 88 1019.6
20260503050006 37 321 0.0 0.0 0.00 0.00 0.00 87 1019.5
20260503044510 37 321 0.0 0.0 0.00 0.00 0.00 86 1019.4
20260503043042 38 321 0.0 0.0 0.00 0.00 0.00 86 1019.4
20260503041549 38 321 0.0 0.0 0.00 0.00 0.00 85 1019.4
20260503040048 39 321 0.0 0.0 0.00 0.00 0.00 84 1019.5
20260503034515 40 321 0.0 0.0 0.00 0.00 0.00 84 1019.3
20260503033004 41 321 0.0 0.0 0.00 0.00 0.00 82 1019.3
20260503031510 41 321 0.0 0.0 0.00 0.00 0.00 82 1019.2
20260503030003 43 321 0.0 0.0 0.00 0.00 0.00 81 1019.2
20260503024506 44 321 0.0 0.0 0.00 0.00 0.00 80 1019.1